AirNav   Phillips 66 Aviation Fuel
 
 516 users online  

PA53 Cosklos Elkview Airport
Carbondale, Pennsylvania, USA

GOING TO CARBONDALE?


FAA INFORMATION EFFECTIVE 07 DECEMBER 2017

Location

FAA Identifier: PA53
Lat/Long: 41-37-37.2940N / 075-31-41.6650W
41-37.621567N / 075-31.694417W
41.6270261 / -75.5282403
(estimated)
Elevation: 1710 ft. / 521 m (estimated)
Variation: 12W (1985)
From city: 3 miles NW of CARBONDALE, PA
Time zone: UTC -5 (UTC -4 during Daylight Saving Time)
Zip code: 18407

Airport Operations

Airport use: Private use. Permission required prior to landing
Activation date: 09/1962
Control tower: no
ARTCC: NEW YORK CENTER
FSS: WILLIAMSPORT FLIGHT SERVICE STATION
Attendance: UNATNDD
Wind indicator: yes
Segmented circle: no

Airport Communications

WX ASOS at AVP (19 nm SW): PHONE 570-655-0748

Nearby radio navigation aids

VOR radial/distance  VOR name  Freq  Var
LVZr029/22.5WILKES-BARRE VORTAC111.6010W
HNKr211/27.8HANCOCK VOR/DME116.8011W

Airport Services

Airframe service: NONE
Powerplant service: NONE

Runway Information

Runway N/S

Dimensions: 1600 x 200 ft. / 488 x 61 m
Surface: turf
RUNWAY N  RUNWAY S
Traffic pattern: leftleft
Obstructions: plinetrees

Airport Ownership and Management from official FAA records

Ownership: Privately-owned
Owner: GAIL COSKLO
RD 1
CARBONDALE, PA 18407
Phone 717-282-0319
Manager: SCOTT COSKLO
RD 1
CARBONDALE, PA 18407
Phone 717-282-0319

Airport Operational Statistics

Aircraft based on the field: 1
Single engine airplanes: 1
    

Instrument Procedures

There are no published instrument procedures at PA53.

Some nearby airports with instrument procedures:

9N3 - Seamans Field Airport (10 nm W)
N30 - Cherry Ridge Airport (14 nm SE)
70N - Spring Hill Airport (18 nm S)
KAVP - Wilkes-Barre/Scranton International Airport (19 nm SW)
KWBW - Wilkes-Barre Wyoming Valley Airport (25 nm SW)
 
Loc | Ops | Rwys | IFR | FBO | Links
Com | Nav | Svcs | Stats | Notes


 
Area around PA53 (Cosklos Elkview Airport)
 
Road maps at: MapQuest Bing Google
 
Aerial photo
No photo
 
Sectional chart

 
Airport distance calculator
Flying to Cosklos Elkview Airport? Find the distance to fly.

From to PA53

Sunrise and sunset
Times for 11-Dec-2017
 Local
(UTC-5)
 Zulu
(UTC)
Morning civil twilight06:4811:48
Sunrise07:2012:20
Sunset16:3121:31
Evening civil twilight17:0222:02

Current date and time
Zulu (UTC)  11-Dec-2017 11:50:04
Local (UTC-5)  11-Dec-2017 06:50:04
 
METAR
KAVP 
20nm SW 
111054Z 22004KT 10SM OVC042 M01/M06 A2995 RMK AO2 SLP148 T10111061
KMPO 
30nm S 
111053Z AUTO 26004KT 10SM FEW031 SCT044 OVC055 M05/M07 A2989 RMK AO2 SLP149 T10501072 $
KMSV 
34nm E 
110300Z 24005KT 10SM FEW012 M04/M08 A2991
TAF
KAVP 
20nm SW 
110917Z 1109/1206 23006KT P6SM BKN050 FM111300 28006KT P6SM SCT060 FM112200 VRB04KT P6SM BKN050 FM120100 15005KT P6SM BKN060
NOTAMs
Click for the latest NOTAMs
NOTAMs are issued by the DoD/FAA and will open in a separate window not controlled by AirNav.

 

 
 

Would you like to see your business listed on this page?

 If your business provides an interesting product or service to pilots, flight crews, aircraft, or users of the Cosklos Elkview Airport, you should consider listing it here.  To start the listing process, click on the button below
 
Add a business
 

Other Pages about Cosklos Elkview Airport

Update a link
 
Copyright © AirNav, LLC. All rights reserved. Privacy Policy  Contact